VTK601 UZTT-UNOO

Flight info

Callsign VTK601
Flight time N/A
Altitude 36000
Route NIMAG2H NIMAG Z632 GENDI M168 TIMKA/K0843F370 P178 AMIGU M75 AMOLA/K0837F380 M75 DAKIN N990 ALODA ALODA6A
Aircraft B737/M-SDE2E3FGHIRWXY/LB1

Departure

Time 2026-04-17 13:07
Airport Tashkent International Airport (UZTT)

Arrival

Time N/A
Airport Omsk Central Airport (UNOO)
Time Latitude Longitude Altitude Speed Heading
2026-04-17 12:55 41.26049 69.26618 1381 ft 0 kts 90°
2026-04-17 13:03 41.26049 69.26613 1381 ft 2 kts 90°
2026-04-17 13:03 41.26054 69.26580 1377 ft 4 kts 142°
2026-04-17 13:03 41.26065 69.26574 1381 ft 0 kts 194°
2026-04-17 13:05 41.26043 69.26563 1378 ft 11 kts 202°
2026-04-17 13:05 41.25947 69.26502 1378 ft 18 kts 209°
2026-04-17 13:05 41.25832 69.26400 1381 ft 22 kts 220°
2026-04-17 13:05 41.25734 69.26249 1377 ft 22 kts 245°
2026-04-17 13:06 41.25675 69.26081 1379 ft 17 kts 244°
2026-04-17 13:06 41.25626 69.26125 1378 ft 14 kts 82°
2026-04-17 13:06 41.25652 69.26353 1380 ft 53 kts 81°
2026-04-17 13:06 41.25741 69.27150 1380 ft 119 kts 82°
2026-04-17 13:07 41.25880 69.28467 1438 ft 164 kts 82°
2026-04-17 13:07 41.26048 69.30092 1809 ft 188 kts 81°
2026-04-17 13:07 41.26237 69.31925 2190 ft 215 kts 81°
2026-04-17 13:07 41.26447 69.34032 2518 ft 241 kts 80°
2026-04-17 13:08 41.26666 69.36280 3252 ft 248 kts 81°
2026-04-17 13:08 41.26881 69.38516 4392 ft 238 kts 81°
2026-04-17 13:08 41.27085 69.40663 5523 ft 233 kts 82°
2026-04-17 13:08 41.27290 69.42819 6369 ft 238 kts 81°
2026-04-17 13:09 41.27263 69.45035 7134 ft 245 kts 107°
2026-04-17 13:09 41.26373 69.46977 7846 ft 250 kts 140°
2026-04-17 13:09 41.24844 69.48003 8712 ft 248 kts 172°
2026-04-17 13:09 41.23158 69.47830 9518 ft 245 kts 204°
2026-04-17 13:10 41.21807 69.46523 10285 ft 242 kts 236°
2026-04-17 13:10 41.21176 69.44486 11030 ft 241 kts 265°
2026-04-17 13:10 41.21326 69.42277 11809 ft 243 kts 283°
2026-04-17 13:10 41.21820 69.40120 12578 ft 245 kts 287°
2026-04-17 13:11 41.22372 69.37958 13358 ft 249 kts 287°
2026-04-17 13:11 41.22918 69.35799 14138 ft 251 kts 286°
2026-04-17 13:11 41.23473 69.33562 14880 ft 253 kts 285°
2026-04-17 13:11 41.24015 69.31329 15626 ft 255 kts 285°
2026-04-17 13:12 41.24552 69.29098 16352 ft 258 kts 285°
2026-04-17 13:12 41.25370 69.24435 17743 ft 265 kts 265°
2026-04-17 13:12 41.25147 69.21917 17977 ft 286 kts 261°
2026-04-17 13:13 41.24839 69.19203 18160 ft 309 kts 261°
2026-04-17 13:13 41.24509 69.16279 18325 ft 331 kts 261°
2026-04-17 13:13 41.24168 69.13150 18499 ft 353 kts 261°
2026-04-17 13:13 41.23813 69.09828 18642 ft 372 kts 261°
2026-04-17 13:14 41.23579 69.06338 18888 ft 387 kts 272°
2026-04-17 13:14 41.24144 69.02811 19453 ft 394 kts 288°
2026-04-17 13:14 41.25395 68.99554 20166 ft 399 kts 301°
2026-04-17 13:14 41.27228 68.96748 20796 ft 408 kts 315°
2026-04-17 13:15 41.29621 68.94637 21362 ft 421 kts 330°
2026-04-17 13:15 41.32466 68.93499 21889 ft 436 kts 348°
2026-04-17 13:15 41.35543 68.93531 22412 ft 450 kts
2026-04-17 13:15 41.38579 68.94763 22902 ft 463 kts 20°
2026-04-17 13:16 41.41531 68.96532 23389 ft 468 kts 21°
2026-04-17 13:16 41.44502 68.98376 23813 ft 474 kts 21°
2026-04-17 13:16 41.47501 69.00279 24207 ft 479 kts 22°
2026-04-17 13:16 41.50436 69.02169 24678 ft 480 kts 22°
2026-04-17 13:17 41.53413 69.04095 25084 ft 483 kts 22°
2026-04-17 13:17 41.56454 69.06062 25432 ft 488 kts 21°
2026-04-17 13:17 41.59524 69.08044 25774 ft 492 kts 21°
2026-04-17 13:17 41.62625 69.10003 26128 ft 493 kts 17°
2026-04-17 13:18 41.65912 69.11099 26442 ft 484 kts 359°
2026-04-17 13:18 41.69231 69.11017 26864 ft 472 kts 344°
2026-04-17 13:18 41.72396 69.10059 27302 ft 466 kts 338°
2026-04-17 13:18 41.75534 69.08940 27676 ft 467 kts 337°
2026-04-17 13:19 41.78681 69.07810 28024 ft 470 kts 337°
2026-04-17 13:19 41.81853 69.06696 28367 ft 473 kts 337°
2026-04-17 13:19 41.85049 69.05600 28707 ft 475 kts 338°
2026-04-17 13:19 41.88261 69.04522 29170 ft 476 kts 338°
2026-04-17 13:20 41.91452 69.03463 29880 ft 469 kts 337°
2026-04-17 13:20 41.94600 69.02413 30477 ft 466 kts 336°
2026-04-17 13:20 41.97741 69.01347 30836 ft 465 kts 335°
2026-04-17 13:20 42.00860 69.00181 31140 ft 465 kts 334°
2026-04-17 13:21 42.03957 68.98951 31504 ft 464 kts 334°
2026-04-17 13:21 42.07039 68.97706 31927 ft 462 kts 333°
2026-04-17 13:21 42.10114 68.96468 32336 ft 460 kts 334°
2026-04-17 13:21 42.13185 68.95242 32692 ft 460 kts 333°
2026-04-17 13:22 42.16252 68.94019 33022 ft 460 kts 333°
2026-04-17 13:22 42.19327 68.92800 33349 ft 460 kts 333°
2026-04-17 13:22 42.22401 68.91585 33693 ft 460 kts 333°
2026-04-17 13:22 42.25430 68.90390 34055 ft 459 kts 333°
2026-04-17 13:23 42.28492 68.89180 34382 ft 458 kts 332°
2026-04-17 13:23 42.31553 68.87970 34650 ft 458 kts 333°
2026-04-17 13:23 42.34610 68.86757 34897 ft 458 kts 333°
2026-04-17 13:23 42.37664 68.85543 35149 ft 457 kts 333°
2026-04-17 13:24 42.40724 68.84325 35337 ft 459 kts 333°
2026-04-17 13:24 42.43780 68.83080 35553 ft 457 kts 331°
2026-04-17 13:24 42.46751 68.81638 35826 ft 452 kts 329°
2026-04-17 13:24 42.49662 68.80081 36107 ft 448 kts 328°
2026-04-17 13:25 42.52551 68.78482 36256 ft 449 kts 328°
2026-04-17 13:25 42.55460 68.76870 36246 ft 453 kts 328°
2026-04-17 13:25 42.61294 68.73694 36268 ft 450 kts 329°
2026-04-17 13:26 42.67102 68.70581 36255 ft 447 kts 329°
2026-04-17 13:26 42.72875 68.67482 36252 ft 444 kts 329°
2026-04-17 13:27 42.78613 68.64392 36278 ft 442 kts 330°
2026-04-17 13:27 42.84336 68.61308 36264 ft 442 kts 330°
2026-04-17 13:28 42.90066 68.58241 36262 ft 443 kts 330°
2026-04-17 13:28 42.95814 68.55164 36283 ft 444 kts 330°
2026-04-17 13:29 43.00609 68.52588 36266 ft 447 kts 330°
2026-04-17 13:29 43.06403 68.49469 36265 ft 449 kts 330°
2026-04-17 13:30 43.12224 68.46328 36268 ft 450 kts 331°
2026-04-17 13:30 43.19005 68.42664 36257 ft 451 kts 330°
2026-04-17 13:31 43.23899 68.40014 36257 ft 451 kts 330°
2026-04-17 13:31 43.29789 68.36984 36263 ft 457 kts 337°
2026-04-17 13:32 43.36127 68.35692 36262 ft 467 kts 348°
2026-04-17 13:32 43.42611 68.34958 36248 ft 467 kts 348°
2026-04-17 13:33 43.49076 68.34158 36267 ft 466 kts 347°
2026-04-17 13:33 43.55514 68.33293 36252 ft 464 kts 347°
2026-04-17 13:34 43.61937 68.32424 36269 ft 463 kts 347°
2026-04-17 13:34 43.68348 68.31561 36295 ft 462 kts 348°
2026-04-17 13:35 43.74746 68.30691 36281 ft 462 kts 348°
2026-04-17 13:35 43.81134 68.29822 36286 ft 461 kts 348°
2026-04-17 13:36 43.87514 68.28955 36291 ft 460 kts 348°
2026-04-17 13:36 43.93872 68.28087 36286 ft 458 kts 348°
2026-04-17 13:37 44.00174 68.27226 36294 ft 457 kts 348°
2026-04-17 13:37 44.06522 68.26354 36467 ft 460 kts 348°
2026-04-17 13:38 44.09699 68.25919 36775 ft 457 kts 348°
2026-04-17 13:38 44.12859 68.25505 37093 ft 456 kts 351°
2026-04-17 13:38 44.16054 68.25521 37269 ft 464 kts
2026-04-17 13:38 44.19277 68.26099 37310 ft 470 kts
2026-04-17 13:39 44.25740 68.27539 37313 ft 469 kts
2026-04-17 13:39 44.32155 68.28985 37308 ft 465 kts
2026-04-17 13:40 44.38537 68.30352 37308 ft 463 kts
2026-04-17 13:40 44.44891 68.31679 37309 ft 461 kts
2026-04-17 13:41 44.51232 68.32999 37313 ft 461 kts
2026-04-17 13:41 44.57578 68.34325 37316 ft 461 kts
2026-04-17 13:42 44.63929 68.35657 37311 ft 462 kts
2026-04-17 13:42 44.70242 68.36985 37326 ft 462 kts
2026-04-17 13:43 44.76611 68.38328 37316 ft 463 kts
2026-04-17 13:43 44.82983 68.39676 37315 ft 463 kts
2026-04-17 13:44 44.89358 68.41025 37319 ft 463 kts
2026-04-17 13:44 44.95729 68.42378 37317 ft 463 kts
2026-04-17 13:45 45.02101 68.43733 37315 ft 463 kts
2026-04-17 13:45 45.08465 68.45089 37325 ft 463 kts
2026-04-17 13:46 45.14829 68.46449 37316 ft 462 kts
2026-04-17 13:46 45.21181 68.47810 37319 ft 461 kts
2026-04-17 13:47 45.27475 68.49160 37315 ft 460 kts
2026-04-17 13:47 45.33803 68.50521 37341 ft 460 kts
2026-04-17 13:48 45.40128 68.51885 37325 ft 459 kts
2026-04-17 13:48 45.46447 68.53251 37320 ft 459 kts
2026-04-17 13:49 45.52756 68.54617 37327 ft 458 kts
2026-04-17 13:49 45.59051 68.55985 37331 ft 457 kts
2026-04-17 13:50 45.65337 68.57353 37338 ft 456 kts
2026-04-17 13:50 45.71605 68.58718 37317 ft 455 kts
2026-04-17 13:51 45.77864 68.60084 37348 ft 455 kts
2026-04-17 13:51 45.84129 68.61457 37339 ft 456 kts
2026-04-17 13:52 45.90400 68.62833 37340 ft 455 kts
2026-04-17 13:52 45.96619 68.64208 37335 ft 455 kts
2026-04-17 13:53 46.02882 68.65595 37350 ft 455 kts
2026-04-17 13:53 46.09139 68.66980 37338 ft 455 kts
2026-04-17 13:54 46.18512 68.69057 37347 ft 454 kts
2026-04-17 13:55 46.27884 68.71144 37349 ft 454 kts
2026-04-17 13:56 46.40373 68.73941 37351 ft 454 kts
2026-04-17 13:56 46.46619 68.75346 37356 ft 454 kts
2026-04-17 13:57 46.52857 68.76751 37355 ft 453 kts
2026-04-17 13:58 46.62182 68.78851 37361 ft 451 kts
2026-04-17 13:58 46.71469 68.80953 37365 ft 450 kts
2026-04-17 13:59 46.80748 68.83060 37368 ft 450 kts
2026-04-17 14:00 46.86936 68.84470 37373 ft 450 kts
2026-04-17 14:00 46.93085 68.85875 37383 ft 451 kts
2026-04-17 14:01 46.99321 68.87304 37372 ft 451 kts
2026-04-17 14:01 47.05479 68.88718 37375 ft 451 kts
2026-04-17 14:02 47.11677 68.90145 37392 ft 451 kts
2026-04-17 14:02 47.17884 68.91572 37395 ft 451 kts
2026-04-17 14:03 47.24082 68.93005 37382 ft 451 kts
2026-04-17 14:03 47.30269 68.94438 37379 ft 449 kts
2026-04-17 14:04 47.36436 68.95870 37390 ft 448 kts
2026-04-17 14:04 47.42591 68.97305 37386 ft 447 kts
2026-04-17 14:05 47.48728 68.98736 37382 ft 446 kts
2026-04-17 14:05 47.54858 69.00168 37389 ft 445 kts
2026-04-17 14:06 47.60980 69.01603 37398 ft 445 kts
2026-04-17 14:06 47.67103 69.03041 37397 ft 445 kts
2026-04-17 14:07 47.73225 69.04483 37398 ft 445 kts
2026-04-17 14:07 47.79341 69.05927 37397 ft 445 kts
2026-04-17 14:08 47.85453 69.07373 37403 ft 444 kts
2026-04-17 14:08 47.91522 69.08813 37400 ft 444 kts
2026-04-17 14:09 47.97614 69.10262 37407 ft 443 kts
2026-04-17 14:09 48.03704 69.11716 37407 ft 443 kts
2026-04-17 14:10 48.09781 69.13167 37422 ft 441 kts
2026-04-17 14:10 48.15839 69.14617 37410 ft 440 kts
2026-04-17 14:11 48.21889 69.16070 37413 ft 440 kts
2026-04-17 14:11 48.27925 69.17522 37410 ft 439 kts
2026-04-17 14:12 48.33952 69.18974 37412 ft 438 kts
2026-04-17 14:12 48.39975 69.20433 37415 ft 438 kts
2026-04-17 14:13 48.49001 69.22619 37417 ft 438 kts
2026-04-17 14:13 48.55016 69.24083 37436 ft 439 kts
2026-04-17 14:14 48.61004 69.25544 37425 ft 438 kts
2026-04-17 14:14 48.67066 69.27024 37424 ft 438 kts
2026-04-17 14:15 48.73085 69.28498 37429 ft 438 kts
2026-04-17 14:15 48.79102 69.29978 37430 ft 438 kts
2026-04-17 14:16 48.85082 69.31451 37429 ft 438 kts
2026-04-17 14:16 48.91099 69.32936 37431 ft 437 kts
2026-04-17 14:17 48.97109 69.34424 37435 ft 438 kts
2026-04-17 14:17 49.03123 69.35915 37436 ft 438 kts
2026-04-17 14:18 49.09138 69.37409 37432 ft 438 kts
2026-04-17 14:18 49.15145 69.38907 37433 ft 437 kts
2026-04-17 14:19 49.21157 69.40408 37436 ft 438 kts
2026-04-17 14:19 49.27099 69.42493 37438 ft 442 kts 18°
2026-04-17 14:20 49.32513 69.47021 37445 ft 447 kts 32°
2026-04-17 14:20 49.36682 69.51734 37432 ft 448 kts 33°
2026-04-17 14:21 49.41665 69.57469 37441 ft 448 kts 33°
2026-04-17 14:21 49.46667 69.63165 37432 ft 447 kts 33°
2026-04-17 14:22 49.51675 69.68834 37431 ft 447 kts 33°
2026-04-17 14:22 49.56689 69.74510 37434 ft 447 kts 33°
2026-04-17 14:23 49.61698 69.80198 37427 ft 447 kts 33°
2026-04-17 14:23 49.66698 69.85892 37432 ft 447 kts 33°
2026-04-17 14:24 49.71692 69.91592 37422 ft 446 kts 33°
2026-04-17 14:24 49.76646 69.97264 37423 ft 446 kts 33°
2026-04-17 14:25 49.81627 70.02981 37419 ft 446 kts 33°
2026-04-17 14:25 49.86603 70.08709 37417 ft 446 kts 33°
2026-04-17 14:26 49.91581 70.14453 37420 ft 445 kts 33°
2026-04-17 14:26 49.96551 70.20203 37411 ft 445 kts 33°
2026-04-17 14:27 50.01509 70.25951 37408 ft 444 kts 33°
2026-04-17 14:27 50.06464 70.31718 37408 ft 445 kts 33°
2026-04-17 14:28 50.11411 70.37508 37405 ft 445 kts 33°
2026-04-17 14:28 50.16358 70.43311 37401 ft 446 kts 33°
2026-04-17 14:29 50.21315 70.49132 37405 ft 446 kts 33°
2026-04-17 14:29 50.26266 70.54960 37391 ft 445 kts 33°
2026-04-17 14:30 50.31212 70.60794 37376 ft 445 kts 33°
2026-04-17 14:30 50.36149 70.66632 37374 ft 445 kts 33°
2026-04-17 14:31 50.41083 70.72479 37383 ft 445 kts 33°
2026-04-17 14:31 50.46015 70.78334 37366 ft 444 kts 33°
2026-04-17 14:32 50.50947 70.84205 37377 ft 445 kts 33°
2026-04-17 14:32 50.55874 70.90085 37377 ft 445 kts 33°
2026-04-17 14:33 50.60799 70.95979 37370 ft 445 kts 33°
2026-04-17 14:33 50.65722 71.01886 37379 ft 445 kts 33°
2026-04-17 14:34 50.70646 71.07815 37367 ft 445 kts 33°
2026-04-17 14:34 50.75569 71.13753 37364 ft 446 kts 33°
2026-04-17 14:35 50.80469 71.19634 37348 ft 444 kts 33°
2026-04-17 14:35 50.84600 71.24555 37355 ft 444 kts 33°